LX1BS-13 Weather Reports


Display with metric or nautical units.
time (UTC)temp
F
wind
direction
speed
MPH
gust
MPH
rain 1hr
in
rain 24hr
in
rain mn
in
humidity
%
barometer
mb
20260502194600 64 0 0.0 1.0 0.00 0.00 0.00 53 1014.7
20260502193103 65 45 0.0 1.0 0.00 0.00 0.00 51 1014.8
20260502191556 65 45 0.0 2.0 0.00 0.00 0.00 50 1014.6
20260502190100 66 45 1.0 2.0 0.00 0.00 0.00 48 1014.5
20260502184606 67 45 0.0 3.0 0.00 0.00 0.00 47 1014.5
20260502183104 67 56 0.0 2.0 0.00 0.00 0.00 47 1014.4
20260502181607 68 0 0.0 2.0 0.00 0.00 0.00 46 1014.5
20260502180107 69 0 0.0 2.0 0.00 0.00 0.00 45 1014.5
20260502170109 71 63 1.0 3.0 0.00 0.00 0.00 45 1014.6
20260502163102 72 0 2.0 5.0 0.00 0.00 0.00 44 1014.7
20260502161600 73 32 0.0 5.0 0.00 0.00 0.00 42 1014.9
20260502151611 73 320 1.0 9.0 0.00 0.00 0.00 47 1015.5
20260502123100 73 260 7.0 13.0 0.00 0.00 0.00 54 1017.8
20260502121557 73 253 6.0 14.0 0.00 0.00 0.00 55 1018.1
20260502120104 74 247 3.0 14.0 0.00 0.00 0.00 54 1018.2
20260502114559 73 242 5.0 9.0 0.00 0.00 0.00 52 1018.3
20260502113059 73 251 4.0 9.0 0.00 0.00 0.00 53 1018.5
20260502111623 73 295 4.0 9.0 0.00 0.00 0.00 51 1018.8
20260502110100 72 259 2.0 11.0 0.00 0.00 0.00 52 1018.9
20260502104559 71 261 4.0 9.0 0.00 0.00 0.00 51 1019.1
20260502103110 71 252 4.0 9.0 0.00 0.00 0.00 50 1019.2
20260502101612 71 333 3.0 7.0 0.00 0.00 0.00 49 1019.5
20260502090105 66 217 0.0 2.0 0.00 0.00 0.00 66 1019.9
20260502070101 53 267 0.0 2.0 0.00 0.00 0.00 74 1020.9
20260502064603 53 0 0.0 3.0 0.00 0.00 0.00 75 1020.6
20260502063100 52 267 1.0 2.0 0.00 0.00 0.00 77 1020.5
20260502061557 49 0 0.0 2.0 0.00 0.00 0.00 77 1020.5
20260502060101 48 0 0.0 1.0 0.00 0.00 0.00 80 1020.8
20260502054604 47 55 0.0 2.0 0.00 0.00 0.00 79 1021.1
20260502053102 46 38 0.0 2.0 0.00 0.00 0.00 79 1021.3
20260502051601 46 0 1.0 3.0 0.00 0.00 0.00 81 1021.4
20260502050101 45 0 0.0 1.0 0.00 0.00 0.00 82 1020.9
20260502044559 44 0 0.0 0.0 0.00 0.00 0.00 80 1020.8
20260502043106 44 0 0.0 0.0 0.00 0.00 0.00 79 1020.8
20260502041558 44 0 0.0 1.0 0.00 0.00 0.00 78 1020.7
20260502040057 44 0 0.0 3.0 0.00 0.00 0.00 78 1020.6
20260502034601 44 0 0.0 3.0 0.00 0.00 0.00 76 1020.6
20260502033059 43 21 0.0 2.0 0.00 0.00 0.00 79 1020.8
20260502031559 43 0 0.0 2.0 0.00 0.00 0.00 81 1021.2
20260502030101 43 261 2.0 4.0 0.00 0.00 0.00 79 1021.5
20260502024558 44 0 0.0 0.0 0.00 0.00 0.00 78 1020.9
20260502023102 44 0 0.0 0.0 0.00 0.00 0.00 76 1020.9
20260502021559 45 0 0.0 0.0 0.00 0.00 0.00 75 1020.9
20260502020059 44 0 0.0 2.0 0.00 0.00 0.00 76 1021.0
20260502014557 45 352 0.0 1.0 0.00 0.00 0.00 73 1021.2
20260502013100 46 0 0.0 1.0 0.00 0.00 0.00 71 1021.3
20260502011604 46 0 0.0 2.0 0.00 0.00 0.00 72 1021.1
20260502010057 45 0 0.0 2.0 0.00 0.00 0.00 74 1021.3
20260502004609 45 288 0.0 2.0 0.00 0.00 0.00 74 1021.5
20260502003059 46 288 1.0 2.0 0.00 0.00 0.00 72 1021.5
20260502001558 46 0 0.0 1.0 0.00 0.00 0.00 71 1021.3
20260502000113 47 0 0.0 0.0 0.00 0.00 0.00 69 1021.4
20260501234557 47 326 1.0 2.0 0.00 0.00 0.00 67 1021.5
20260501233107 49 0 0.0 1.0 0.00 0.00 0.00 64 1021.6
20260501231609 50 0 0.0 1.0 0.00 0.00 0.00 62 1021.8
20260501230106 50 0 0.0 1.0 0.00 0.00 0.00 60 1021.8
20260501224604 51 0 0.0 1.0 0.00 0.00 0.00 60 1021.9
20260501223108 51 0 0.0 0.0 0.00 0.00 0.00 60 1022.0
20260501221606 52 0 0.0 0.0 0.00 0.00 0.00 59 1022.2
20260501220105 52 0 0.0 1.0 0.00 0.00 0.00 56 1022.2
20260501214600 53 0 0.0 1.0 0.00 0.00 0.00 55 1022.1
20260501213112 54 0 0.0 2.0 0.00 0.00 0.00 52 1022.2
20260501211557 56 0 0.0 0.0 0.00 0.00 0.00 51 1022.0
20260501210100 58 0 0.0 2.0 0.00 0.00 0.00 44 1021.9
20260501204557 57 0 0.0 1.0 0.00 0.00 0.00 43 1021.7
20260501203101 58 19 1.0 2.0 0.00 0.00 0.00 43 1021.8
20260501201558 60 0 0.0 0.0 0.00 0.00 0.00 40 1021.8
20260501200059 60 0 0.0 1.0 0.00 0.00 0.00 38 1021.8